{"data":{"norad_id":65341,"epoch":"2026-05-25T03:49:40.310112Z","epoch_age_seconds":60899,"freshness":"FRESH","line1":"1 65341U 25189U   26145.15949433  .00012616  00000+0  43729-3 0  9993","line2":"2 65341  53.1590 211.6145 0001157  87.4385 272.6748 15.30205929 42764","mean_motion":15.30205929,"eccentricity":0.0001157,"inclination_deg":53.159,"raan_deg":211.6145,"arg_perigee_deg":87.4385,"mean_anomaly_deg":272.6748,"bstar":0.00043729,"rev_number":4276,"period_min":94.104981081929,"perigee_km":474.40443576498,"apogee_km":475.9902973374,"semimajor_km":6853.3343665512,"source":"CELESTRAK","updated_at":"2026-05-25T13:38:20.762115Z"}}